Location: Bidwell Hollow
(37.7387°N, 90.1707°W)
Time: 10:18:49
(UTC+00:00)

Transit 2A - Pass Details

Date: 21 May 2026
Orbit: 596 x 948 km, 66.7° (Epoch: 10 June)

Event Time Altitude Azimuth Distance (km) Brightness Sun altitude
Rises 05:28:06 0° 331° (NNW) 3,098 10.1 -31.7°
Reaches altitude 10° 05:30:32 10° 331° (NNW) 2,124 9.1 -31.7°
Enters shadow 05:33:11 33° 330° (NNW) 1,112 7.2 -31.8°
Maximum altitude 05:35:18 87° 246° (WSW) 644 - -31.8°
Drops below altitude 10° 05:39:41 10° 155° (SSE) 1,959 - -31.9°
Sets 05:41:52 0° 155° (SSE) 2,838 - -32.0°
